This is the latest recevied weather packets stored in our database for station/object OM0XA-10. If no packets are shown the sender has not sent any weather packets the latest 10 day(s).
| Time | Temp. | Humidity | Pressure | Rain* | Wind** | Luminosity | Snow |
|---|---|---|---|---|---|---|---|
| 1777673316 | 22.78° C | 37% | 1027.8 hPa | - | - | - | - |
| 1777672416 | 22.78° C | 37% | 1027.9 hPa | - | - | - | - |
| 1777671516 | 23.33° C | 37% | 1027.7 hPa | - | - | - | - |
| 1777670615 | 23.33° C | 37% | 1027.8 hPa | - | - | - | - |
| 1777669715 | 23.33° C | 37% | 1027.7 hPa | - | - | - | - |
| 1777668815 | 23.89° C | 37% | 1027.7 hPa | - | - | - | - |
| 1777667915 | 23.89° C | 37% | 1027.8 hPa | - | - | - | - |
| 1777667015 | 24.44° C | 36% | 1027.7 hPa | - | - | - | - |
| 1777666115 | 24.44° C | 36% | 1027.7 hPa | - | - | - | - |
| 1777665215 | 24.44° C | 36% | 1027.7 hPa | - | - | - | - |
| 1777664315 | 24.44° C | 36% | 1027.7 hPa | - | - | - | - |
| 1777663415 | 24.44° C | 36% | 1027.8 hPa | - | - | - | - |
| 1777662515 | 24.44° C | 36% | 1027.8 hPa | - | - | - | - |
| 1777661615 | 23.89° C | 37% | 1027.8 hPa | - | - | - | - |
| 1777660714 | 23.89° C | 36% | 1027.6 hPa | - | - | - | - |
| 1777659814 | 23.89° C | 36% | 1027.5 hPa | - | - | - | - |
| 1777658913 | 23.89° C | 38% | 1027.4 hPa | - | - | - | - |
| 1777658013 | 23.89° C | 37% | 1027.4 hPa | - | - | - | - |
| 1777657113 | 23.33° C | 37% | 1027.4 hPa | - | - | - | - |
| 1777656213 | 23.33° C | 36% | 1027.4 hPa | - | - | - | - |
| 1777655313 | 23.33° C | 36% | 1027.3 hPa | - | - | - | - |
| 1777654413 | 23.33° C | 36% | 1027.4 hPa | - | - | - | - |
| 1777653513 | 23.33° C | 36% | 1027.4 hPa | - | - | - | - |
| 1777652613 | 23.33° C | 36% | 1027.4 hPa | - | - | - | - |
| 1777651712 | 23.33° C | 36% | 1027.4 hPa | - | - | - | - |
* Rain since midnight (hover to see other rain measurements)
** Current wind speed in m/s (hover to see current wind gust speed)